User: anonymous   Login
Location: Newark
(25.4800°N, 85.7200°E)
Time: 06:37:31
(UTC+00:00)
Language:

S-56A Canister/Altair - Orbit

View from above orbital plane
View from above orbital plane
View from above satellite
View from above satellite

Ground track
Ground track

The orbit data is extracted from the following two-line orbital elements,

1    82U 61004B   19234.42221360 +.00000010 +00000-0 +59902-4 0  9990
2    82 038.8532 229.3274 1174216 075.5074 297.2759 12.26046528770988
Epoch (UTC): 22 August 2019 10:07:59
Eccentricity: 0.1174216
inclination: 38.8532°
perigee height: 633 km
apogee height: 2499 km
right ascension of ascending node: 229.3274°
argument of perigee: 75.5074°
revolutions per day: 12.26046528
mean anomaly at epoch: 297.2759°
orbit number at epoch: 77098

The dashed part of the orbit path shows where the satellite is in the earth's shadow,  

DLR